Regional Weather Roundup
Issued by NWS

Home | Current Version | Previous Version | Text Only | Print | Product List | Glossary Off
Versions: 1 2 3 4 5 6 7 8 9 10 11 12 13 14 15 16 17 18 19 20 21 22 23 24 25 26 27 28 29 30 31 32 33 34 35 36 37 38 39 40 41 42 43 44 45 46 47 48 49 50

808
ASUS44 KJAN 260403
RWRMS

MISSISSIPPI HOURLY WEATHER ROUNDUP
NATIONAL WEATHER SERVICE JACKSON MS
1100 PM CDT WED MAR 25 2015

NOTE: "FAIR: INDICATES FEW OR NO CLOUDS BELOW 12,000 FEET WITH NO
SIGNIFICANT WEATHER AND/OR OBSTRUCTIONS TO VISIBILITY.

MSZ001>002-007>008-010>013-018>021-025>028-034>036-260500-
NORTHWEST MISSISSIPPI

CITY           SKY/WX    TMP DP  RH WIND       PRES   REMARKS
CLARKSDALE     FAIR      64  57  77 S5        29.91R
CLEVELAND      FAIR      63  60  90 SW5       29.91R
GREENWOOD      FAIR      66  55  67 CALM      29.92R
GREENVILLE     FAIR      64  55  72 SW5       29.91R
OLIVE BRANCH   CLEAR     63  57  82 CALM      29.92R
OXFORD         FAIR      63  54  72 SE7       29.92S
TUNICA         FAIR      64  55  72 S7        29.90S
$$

MSZ003>006-009-014>017-022>024-029>033-037>039-260500-
NORTHEAST MISSISSIPPI

CITY           SKY/WX    TMP DP  RH WIND       PRES   REMARKS
COLUMBUS AFB   FAIR      64  55  72 SE6       29.93S
CORINTH        FAIR      61  55  82 SE5       29.92R
GOLDN TRIANGLE FAIR      66  54  63 SE9       29.92S
STARKVILLE     FAIR      64  55  72 S3        29.93R
TUPELO         FAIR      65  53  65 S7        29.93R
$$

MSZ040-058-260500-
CENTRAL MISSISSIPPI

CITY           SKY/WX    TMP DP  RH WIND       PRES   REMARKS
JACKSON INTL   FAIR      68  58  70 S15       29.93F
JACKSON HAWKNS FAIR      66  56  70 S9        29.93F
MERIDIAN KEY   FAIR      66  59  78 S15       29.95F
MERIDIAN NAS   MOCLDY    68  57  68 S7        29.94R
RAYMOND        FAIR      68  63  83 S9G17     29.92S
VICKSBURG      FAIR      70  53  54 S8        29.92S
$$

MSZ059>079-260500-
SOUTH MISSISSIPPI

CITY           SKY/WX    TMP DP  RH WIND       PRES   REMARKS
BROOKHAVEN     FAIR      66  61  82 S8        29.97F
HATTIESBURG    FAIR      65  60  84 S6        30.00F
MCCOMB         FAIR      64  58  80 S10       29.97F
NATCHEZ        FAIR      66  55  68 S15       29.94F
PINE BELT      FAIR      64  57  77 S8        30.00F
$$

MSZ080>082-260500-
COASTAL MISSISSIPPI

CITY           SKY/WX    TMP DP  RH WIND       PRES   REMARKS
BILOXI         FAIR      69  65  88 S7        30.00F
PASCAGOULA     FOG       63  63 100 SE3       30.01F VSB 1/2
GULFPORT       FAIR      67  64  90 S5        30.00F
$$



USA.gov is the U.S. government's official web portal to all federal, state and local government web resources and services.